Tracking 19563 objects as of 20-Mar-2019
HD Live streaming from Space Station
objects crossing your sky now

COSMOS 1758

Track COSMOS 1758 now!
10-day predictions
COSMOS 1758 is classified as:


NORAD ID: 16791
Int'l Code: 1986-046A
Perigee: 546.7 km
Apogee: 571.5 km
Inclination: 82.5 °
Period: 95.7 minutes
Semi major axis: 6930 km
RCS: 7.362 m2 (large)
Launch date: June 12, 1986
Source: Commonwealth of Independent States (former USSR) (CIS)
Launch site: PLESETSK MISSILE AND SPACE COMPLEX (PKMTR)
aabbcc
Your satellite tracking list
Your tracking list is empty




NASA's NSSDC Master Catalog

Two Line Element Set (TLE):
1 16791U 86046A   19078.55014393 +.00000789 +00000-0 +53664-4 0  9995
2 16791 082.4694 127.9506 0017903 070.7763 289.5399 15.04843124781697
Source of the keplerian elements: AFSPC